[[{"header":{"parameterUnit":"m.s-1","parameterCategory":2,"la1":30.2992,"la2":30.254,"lo1":-89.0895,"lo2":-89.0443,"dy":0.0025,"dx":0.0025,"nx":19,"ny":19,"refTime":"2026-05-21T09:00:00:Z","depth":"0","parameterNumber":2,"parameterNumberName":"U-component_of_CURRENTS"},"data":[0,0,0,-0.2583,-0.2584,-0.2608,-0.2608,-0.2586,-0.2586,0,0,0,0,0,0,0,0,0,0,0,-0.2564,-0.2564,-0.2583,-0.2584,-0.2608,-0.2608,-0.2586,-0.2586,0,0,0,0,0,0,0,0,0,0,0,-0.2564,-0.2564,-0.2564,-0.2584,-0.2608,-0.2608,-0.2586,-0.258,0,0,0,0,0,0,0,0,0,0,-0.2563,-0.2548,-0.2564,-0.2564,-0.2584,-0.2608,-0.2608,-0.258,-0.258,-0.2561,0,-0.2562,0,-0.2578,-0.2584,-0.2583,0,0,0,-0.258,-0.2548,-0.2563,-0.2564,-0.2584,-0.2608,-0.2596,-0.2581,-0.2581,-0.2561,-0.2562,-0.2562,-0.2578,-0.2583,-0.2583,-0.2515,-0.2515,0,0,-0.2578,-0.256,-0.2564,-0.2563,-0.2585,-0.2595,-0.2597,-0.2581,-0.2572,-0.2562,-0.2562,-0.2578,-0.2583,-0.2583,-0.2516,-0.2515,0,0,0,-0.2577,-0.2558,-0.2575,-0.2563,-0.2575,-0.2596,-0.2598,-0.2572,-0.2581,-0.2562,-0.2577,-0.2583,-0.2582,-0.2516,-0.2516,-0.2554,0,0,0,-0.2576,-0.2559,-0.2575,-0.2563,-0.2575,-0.258,-0.2589,-0.2581,-0.2581,-0.2577,-0.2583,-0.2582,-0.2517,-0.2516,-0.2554,-0.2574,0,0,0,-0.2564,-0.2557,-0.2561,-0.2562,-0.2577,-0.2581,-0.2588,-0.2582,-0.259,-0.2583,-0.2582,-0.2517,-0.2516,-0.2555,-0.2573,-0.2554,0,0,0,-0.2544,-0.2534,-0.256,-0.2556,-0.2577,-0.2586,-0.2589,-0.2585,-0.2577,-0.2583,-0.2517,-0.2516,-0.2555,-0.2573,-0.2554,-0.2334,-0.2316,0,0,-0.2522,-0.2531,-0.2532,-0.2556,-0.2573,-0.2583,-0.2585,-0.2576,-0.255,-0.2519,-0.2518,-0.2554,-0.2573,-0.2554,-0.2267,-0.2251,0,0,0,-0.2519,-0.2519,-0.2527,-0.2545,-0.2563,-0.2583,-0.2578,-0.2567,-0.254,-0.2542,-0.252,-0.2529,-0.2517,-0.2383,-0.237,-0.2279,-0.251,-0.251,-0.2511,-0.2444,-0.2485,-0.2494,-0.2541,-0.2551,-0.2573,-0.2576,-0.2553,-0.2536,-0.2518,-0.2536,-0.2512,-0.2368,-0.2356,-0.2266,-0.2504,-0.2504,-0.2504,-0.2504,-0.2414,-0.2415,-0.2481,-0.2506,-0.2548,-0.2554,-0.2569,-0.2565,-0.2544,-0.2531,-0.2517,-0.2398,-0.2344,-0.2252,-0.2506,-0.2506,-0.2505,-0.2505,-0.2505,-0.2357,-0.2362,-0.2406,-0.2454,-0.2496,-0.2539,-0.2543,-0.257,-0.2561,-0.2563,-0.2379,-0.2376,-0.2317,-0.2544,-0.2544,-0.2544,-0.2544,-0.2544,-0.2544,-0.226,-0.2311,-0.2322,-0.2392,-0.2421,-0.2471,-0.2521,-0.2505,-0.2431,-0.239,-0.2387,-0.2263,-0.2524,-0.2547,-0.2544,-0.2544,-0.2544,-0.2544,-0.2544,-0.2132,-0.2176,-0.2194,-0.2226,-0.2314,-0.2242,-0.2376,-0.2255,-0.2258,-0.2163,-0.204,-0.2277,-0.2239,-0.2245,-0.2259,-0.2182,-0.2182,-0.2182,-0.2182,-0.2016,-0.2052,-0.2062,-0.2109,-0.2167,-0.2143,-0.1897,-0.1842,-0.1815,-0.1744,-0.1847,-0.1779,-0.1797,-0.1733,-0.1751,-0.1755,-0.1552,-0.1551,-0.1551,-0.1893,-0.1944,-0.1909,-0.2019,-0.2097,-0.1954,-0.1537,-0.1292,-0.1354,-0.1528,-0.1772,-0.1798,-0.171,-0.1746,-0.1655,-0.1687,-0.1698,0,0]},{"header":{"parameterUnit":"m.s-1","parameterCategory":2,"la1":30.2992,"la2":30.254,"lo1":-89.0895,"lo2":-89.0443,"dy":0.0025,"dx":0.0025,"nx":19,"ny":19,"refTime":"2026-05-21T09:00:00:Z","depth":"0","parameterNumber":3,"parameterNumberName":"V-component_of_CURRENTS"},"data":[0,0,0,-0.0357,-0.0356,-0.0259,-0.0258,-0.0078,-0.0076,0,0,0,0,0,0,0,0,0,0,0,-0.0396,-0.0396,-0.0358,-0.0356,-0.0259,-0.0258,-0.0078,-0.0076,0,0,0,0,0,0,0,0,0,0,0,-0.0396,-0.0396,-0.0395,-0.0355,-0.0259,-0.0258,-0.0078,-0.0162,0,0,0,0,0,0,0,0,0,0,-0.0262,-0.0315,-0.0396,-0.0395,-0.0355,-0.0259,-0.0258,-0.0167,-0.0157,-0.011,0,-0.0108,0,-0.009,-0.0064,-0.0063,0,0,0,-0.0342,-0.0323,-0.0294,-0.0395,-0.0354,-0.026,-0.0299,-0.0162,-0.0151,-0.0097,-0.0106,-0.0099,-0.0087,-0.0063,-0.0062,0.0049,0.0049,0,0,-0.0347,-0.0373,-0.0303,-0.0288,-0.0345,-0.0302,-0.0296,-0.0155,-0.015,-0.0105,-0.0095,-0.0084,-0.0062,-0.006,0.0049,0.0049,0,0,0,-0.0372,-0.0377,-0.0353,-0.0295,-0.0283,-0.0299,-0.0292,-0.0157,-0.0149,-0.0093,-0.0082,-0.0061,-0.0058,0.005,0.0049,-0.0063,0,0,0,-0.0374,-0.0393,-0.0356,-0.037,-0.0287,-0.0227,-0.0297,-0.0158,-0.0142,-0.0083,-0.0061,-0.0057,0.005,0.0049,-0.006,-0.0088,0,0,0,-0.0398,-0.0395,-0.0388,-0.0372,-0.0335,-0.023,-0.0213,-0.0155,-0.0135,-0.0063,-0.0056,0.005,0.005,-0.0057,-0.0083,-0.0021,0,0,0,-0.042,-0.044,-0.0389,-0.0407,-0.0336,-0.0305,-0.0214,-0.0174,-0.0124,-0.006,0.005,0.0049,-0.0056,-0.008,-0.0019,0.0124,0.0129,0,0,-0.0463,-0.0445,-0.0457,-0.041,-0.0417,-0.0316,-0.0297,-0.0191,-0.0106,0.0011,0.0013,-0.0061,-0.0083,-0.0021,0.0105,0.0111,0,0,0,-0.0483,-0.0498,-0.049,-0.0479,-0.0428,-0.0376,-0.0273,-0.021,-0.0115,-0.0079,-0.0036,-0.0045,-0.0002,0.0088,0.0092,0.0295,0.0048,0.0048,0.0048,-0.0576,-0.0553,-0.058,-0.0547,-0.0514,-0.0409,-0.0352,-0.0239,-0.0164,-0.0139,-0.012,-0.0125,-0.0033,-0.0027,0.0177,-0.0109,-0.0109,-0.011,-0.011,-0.0673,-0.0696,-0.0653,-0.0672,-0.0595,-0.0559,-0.0409,-0.0344,-0.0214,-0.018,-0.0133,-0.0015,-0.0029,0.0188,-0.0117,-0.0116,-0.0115,-0.0114,-0.0114,-0.0754,-0.0762,-0.0765,-0.0773,-0.0742,-0.0644,-0.0538,-0.0444,-0.0301,-0.027,-0.0069,-0.0065,0.012,-0.0221,-0.0221,-0.0221,-0.0221,-0.0221,-0.0221,-0.0836,-0.0836,-0.0874,-0.0874,-0.086,-0.0786,-0.0613,-0.0485,-0.027,-0.0145,-0.0142,0.016,-0.0156,-0.0158,-0.0219,-0.0219,-0.0219,-0.0219,-0.022,-0.0932,-0.0923,-0.0975,-0.0979,-0.0902,-0.066,-0.0584,-0.0228,-0.0144,0.0011,0.0291,-0.0038,0.004,0.004,0.0045,0.0041,0.0041,0.0041,0.0041,-0.0986,-0.0992,-0.1004,-0.0965,-0.0838,-0.0581,-0.0096,0.0175,0.0414,0.0523,0.0508,0.0559,0.054,0.065,0.0635,0.0655,0.0805,0.0806,0.0807,-0.1034,-0.1033,-0.1006,-0.0932,-0.0754,-0.0345,0.0297,0.0807,0.0887,0.0853,0.0759,0.0726,0.081,0.0764,0.0941,0.0904,0.0937,0,0]}],[{"header":{"parameterUnit":"m.s-1","parameterCategory":2,"la1":30.2992,"la2":30.254,"lo1":-89.0895,"lo2":-89.0443,"dy":0.0025,"dx":0.0025,"nx":19,"ny":19,"refTime":"2026-05-21T09:00:00:Z","depth":"2","parameterNumber":2,"parameterNumberName":"U-component_of_CURRENTS"},"data":[0,0,0,-0.2345,-0.2346,-0.2394,-0.2394,-0.2375,-0.2375,0,0,0,0,0,0,0,0,0,0,0,-0.2317,-0.2317,-0.2345,-0.2346,-0.2394,-0.2394,-0.2375,-0.2375,0,0,0,0,0,0,0,0,0,0,0,-0.2317,-0.2317,-0.2318,-0.2346,-0.2394,-0.2394,-0.2375,-0.2358,0,0,0,0,0,0,0,0,0,0,-0.2321,-0.2305,-0.2317,-0.2318,-0.2347,-0.2394,-0.2394,-0.2358,-0.2359,-0.2332,0,-0.2336,0,-0.2359,-0.2372,-0.2372,0,0,0,-0.2342,-0.2305,-0.2323,-0.2318,-0.2347,-0.2394,-0.2371,-0.2359,-0.236,-0.2333,-0.2336,-0.2336,-0.2359,-0.2372,-0.2371,-0.2313,-0.2313,0,0,-0.234,-0.232,-0.2323,-0.2324,-0.2354,-0.237,-0.2373,-0.2361,-0.2353,-0.2336,-0.2337,-0.2359,-0.2371,-0.2371,-0.2313,-0.2313,0,0,0,-0.2335,-0.2318,-0.2338,-0.2323,-0.2341,-0.2371,-0.2375,-0.2354,-0.2362,-0.2337,-0.2358,-0.2371,-0.237,-0.2314,-0.2313,-0.2353,0,0,0,-0.2333,-0.2316,-0.2337,-0.2324,-0.2342,-0.2359,-0.2368,-0.2363,-0.2363,-0.2359,-0.2371,-0.237,-0.2314,-0.2313,-0.2353,-0.2368,0,0,0,-0.2316,-0.2314,-0.2319,-0.2323,-0.2348,-0.236,-0.2368,-0.2364,-0.2376,-0.2372,-0.237,-0.2314,-0.2313,-0.2353,-0.2367,-0.2345,0,0,0,-0.2295,-0.2291,-0.2318,-0.2323,-0.2348,-0.2368,-0.2369,-0.2376,-0.2373,-0.2371,-0.2314,-0.2313,-0.2353,-0.2366,-0.2345,-0.2132,-0.2115,0,0,-0.2279,-0.2289,-0.2294,-0.232,-0.2345,-0.2362,-0.2375,-0.2371,-0.2348,-0.2312,-0.2312,-0.2353,-0.2367,-0.2345,-0.2086,-0.207,0,0,0,-0.2283,-0.2286,-0.2297,-0.2321,-0.2344,-0.2371,-0.2374,-0.2367,-0.2348,-0.2344,-0.2325,-0.2332,-0.2318,-0.2188,-0.2175,-0.2309,-0.231,-0.231,-0.231,-0.2219,-0.2259,-0.2273,-0.2321,-0.2338,-0.2369,-0.2376,-0.2361,-0.2346,-0.2336,-0.2345,-0.2328,-0.2189,-0.2177,-0.2322,-0.2322,-0.2322,-0.2323,-0.2323,-0.2198,-0.2203,-0.2265,-0.2297,-0.2339,-0.2354,-0.2374,-0.2375,-0.2358,-0.235,-0.2334,-0.2211,-0.2165,-0.2325,-0.2325,-0.2324,-0.2324,-0.2324,-0.2324,-0.2149,-0.2156,-0.22,-0.2253,-0.2298,-0.2345,-0.2348,-0.2382,-0.2375,-0.2376,-0.2198,-0.2194,-0.2356,-0.2359,-0.2359,-0.2359,-0.2359,-0.2359,-0.2359,-0.2065,-0.2113,-0.2125,-0.2202,-0.2225,-0.2272,-0.233,-0.2311,-0.2245,-0.2208,-0.2205,-0.234,-0.2339,-0.2355,-0.2359,-0.2359,-0.2359,-0.2359,-0.2359,-0.1957,-0.1997,-0.2004,-0.2029,-0.2089,-0.2053,-0.2169,-0.2069,-0.2064,-0.1976,-0.2091,-0.2097,-0.2056,-0.2063,-0.207,-0.2001,-0.2001,-0.2001,-0.2,-0.1856,-0.189,-0.1855,-0.186,-0.1875,-0.1931,-0.1779,-0.1737,-0.1756,-0.1721,-0.1734,-0.168,-0.1699,-0.1637,-0.1654,-0.1653,-0.1475,-0.1474,-0.1474,-0.1749,-0.1772,-0.169,-0.1737,-0.1752,-0.1739,-0.1543,-0.1376,-0.1295,-0.1461,-0.1728,-0.1949,-0.1901,-0.1919,-0.185,-0.1866,-0.1876,0,0]},{"header":{"parameterUnit":"m.s-1","parameterCategory":2,"la1":30.2992,"la2":30.254,"lo1":-89.0895,"lo2":-89.0443,"dy":0.0025,"dx":0.0025,"nx":19,"ny":19,"refTime":"2026-05-21T09:00:00:Z","depth":"2","parameterNumber":3,"parameterNumberName":"V-component_of_CURRENTS"},"data":[0,0,0,-0.0423,-0.0422,-0.0331,-0.033,-0.0169,-0.0167,0,0,0,0,0,0,0,0,0,0,0,-0.046,-0.046,-0.0424,-0.0422,-0.0331,-0.033,-0.0169,-0.0167,0,0,0,0,0,0,0,0,0,0,0,-0.046,-0.046,-0.0459,-0.0422,-0.0331,-0.033,-0.0169,-0.0246,0,0,0,0,0,0,0,0,0,0,-0.0339,-0.0387,-0.046,-0.0459,-0.0421,-0.0331,-0.033,-0.025,-0.0241,-0.0201,0,-0.0199,0,-0.0181,-0.0157,-0.0156,0,0,0,-0.0409,-0.0395,-0.0368,-0.0459,-0.042,-0.0331,-0.0368,-0.0246,-0.0235,-0.0189,-0.0197,-0.0191,-0.0179,-0.0156,-0.0155,-0.0035,-0.0035,0,0,-0.0414,-0.0439,-0.0375,-0.0362,-0.0411,-0.0371,-0.0366,-0.024,-0.0235,-0.0196,-0.0187,-0.0176,-0.0155,-0.0153,-0.0035,-0.0035,0,0,0,-0.0437,-0.0442,-0.0419,-0.0369,-0.0357,-0.0369,-0.0362,-0.0241,-0.0233,-0.0185,-0.0174,-0.0154,-0.0152,-0.0035,-0.0035,-0.013,0,0,0,-0.044,-0.0456,-0.0422,-0.0435,-0.036,-0.0304,-0.0366,-0.0242,-0.0227,-0.0175,-0.0154,-0.015,-0.0036,-0.0035,-0.0128,-0.0162,0,0,0,-0.0461,-0.0458,-0.0452,-0.0437,-0.0402,-0.0306,-0.0291,-0.0239,-0.022,-0.0156,-0.015,-0.0036,-0.0035,-0.0126,-0.0158,-0.0109,0,0,0,-0.0482,-0.0496,-0.0453,-0.0463,-0.0403,-0.0365,-0.0292,-0.0252,-0.0206,-0.0153,-0.0036,-0.0035,-0.0126,-0.0156,-0.0108,-0.0019,-0.0016,0,0,-0.0514,-0.05,-0.0506,-0.0467,-0.0461,-0.0375,-0.0345,-0.0256,-0.0182,-0.0071,-0.0069,-0.0129,-0.0158,-0.0108,-0.0003,-0.0001,0,0,0,-0.0526,-0.0536,-0.0526,-0.051,-0.0461,-0.041,-0.0319,-0.0262,-0.0172,-0.0153,-0.0096,-0.0111,-0.0076,-0.002,-0.0018,-0.0034,-0.0034,-0.0034,-0.0034,-0.0603,-0.0578,-0.0593,-0.0557,-0.0522,-0.0425,-0.0371,-0.0268,-0.0204,-0.0176,-0.0165,-0.0161,-0.0103,-0.01,-0.014,-0.014,-0.0141,-0.0141,-0.0141,-0.0677,-0.0694,-0.0649,-0.0658,-0.0586,-0.0546,-0.0406,-0.0349,-0.0234,-0.0204,-0.0165,-0.0095,-0.0104,-0.0148,-0.0147,-0.0146,-0.0145,-0.0145,-0.0144,-0.0747,-0.0752,-0.0749,-0.075,-0.0714,-0.0623,-0.0539,-0.0442,-0.0312,-0.0286,-0.0142,-0.0139,-0.0201,-0.0247,-0.0247,-0.0247,-0.0247,-0.0247,-0.0247,-0.0823,-0.0817,-0.0856,-0.0843,-0.0838,-0.0779,-0.0618,-0.0512,-0.0324,-0.0214,-0.0212,-0.0194,-0.0191,-0.0203,-0.0246,-0.0246,-0.0247,-0.0247,-0.0247,-0.0911,-0.0908,-0.0971,-0.0984,-0.0962,-0.0943,-0.0743,-0.0461,-0.0307,-0.0186,-0.0136,-0.0139,-0.008,-0.0078,-0.0085,-0.0095,-0.0095,-0.0095,-0.0095,-0.0971,-0.0975,-0.1072,-0.1112,-0.1107,-0.1019,-0.0856,-0.0532,-0.0213,-0.0063,-0.0065,-0.0056,-0.0061,0.0,-0.0001,-0.0005,0.0005,0.0005,0.0005,-0.1026,-0.1049,-0.1139,-0.1182,-0.1193,-0.1105,-0.1016,-0.068,-0.0172,0.0002,-0.0118,-0.0074,-0.0064,-0.0072,0.0022,0.0021,0.0014,0,0]}],[{"header":{"parameterUnit":"m.s-1","parameterCategory":2,"la1":30.2992,"la2":30.254,"lo1":-89.0895,"lo2":-89.0443,"dy":0.0025,"dx":0.0025,"nx":19,"ny":19,"refTime":"2026-05-21T09:00:00:Z","depth":"4","parameterNumber":2,"parameterNumberName":"U-component_of_CURRENTS"},"data":[0,0,0,-0.1763,-0.1766,-0.1927,-0.1928,-0.1985,-0.1985,0,0,0,0,0,0,0,0,0,0,0,-0.1706,-0.1707,-0.1763,-0.1767,-0.1927,-0.1928,-0.1985,-0.1985,0,0,0,0,0,0,0,0,0,0,0,-0.1705,-0.1706,-0.1708,-0.1767,-0.1927,-0.1928,-0.1985,-0.1902,0,0,0,0,0,0,0,0,0,0,-0.1764,-0.1737,-0.1706,-0.1708,-0.1768,-0.1927,-0.1928,-0.1899,-0.1907,-0.187,0,-0.1899,0,-0.194,-0.1986,-0.1986,0,0,0,-0.177,-0.1731,-0.1768,-0.1708,-0.177,-0.1926,-0.1855,-0.1905,-0.1913,-0.1879,-0.1901,-0.1904,-0.1941,-0.1986,-0.1986,-0.1988,-0.1988,0,0,-0.1761,-0.1737,-0.1763,-0.1774,-0.1814,-0.185,-0.186,-0.1911,-0.192,-0.1901,-0.1906,-0.1942,-0.1986,-0.1986,-0.1988,-0.1988,0,0,0,-0.1733,-0.1731,-0.1771,-0.177,-0.1809,-0.1855,-0.1866,-0.1919,-0.1931,-0.1907,-0.1943,-0.1986,-0.1986,-0.1988,-0.1988,-0.2021,0,0,0,-0.1728,-0.1715,-0.1766,-0.1754,-0.1809,-0.1888,-0.1872,-0.1928,-0.1935,-0.1942,-0.1986,-0.1986,-0.1988,-0.1988,-0.202,-0.2024,0,0,0,-0.1698,-0.1712,-0.173,-0.1752,-0.1821,-0.1889,-0.1906,-0.1931,-0.1955,-0.1986,-0.1986,-0.1988,-0.1988,-0.202,-0.2023,-0.2007,0,0,0,-0.1667,-0.1689,-0.173,-0.1769,-0.1819,-0.1891,-0.1906,-0.1967,-0.1996,-0.1986,-0.1988,-0.1988,-0.2019,-0.2022,-0.2006,-0.1752,0,0,0,-0.167,-0.1689,-0.1711,-0.1751,-0.1817,-0.1869,-0.1928,-0.1976,-0.1977,-0.1961,-0.1963,-0.2021,-0.2023,-0.2007,-0.1754,0,0,0,0,-0.1696,-0.1715,-0.1741,-0.1796,-0.1853,-0.1916,-0.197,-0.1984,-0.2013,-0.1995,-0.2011,-0.2011,-0.2,-0.185,-0.1988,-0.1988,-0.1988,-0.1988,-0.1988,-0.1657,-0.1706,-0.1749,-0.1818,-0.1866,-0.1948,-0.1985,-0.2008,-0.2013,-0.203,-0.2032,-0.2032,-0.1875,-0.2029,-0.2029,-0.2029,-0.203,-0.203,-0.203,-0.1654,-0.1672,-0.1754,-0.1819,-0.1889,-0.1946,-0.2003,-0.2027,-0.2042,-0.205,-0.2037,-0.1888,-0.2033,-0.2032,-0.2032,-0.2031,-0.2031,-0.2031,-0.2031,-0.1611,-0.1623,-0.1695,-0.1788,-0.1872,-0.1954,-0.1973,-0.2041,-0.2058,-0.2063,-0.188,-0.2039,-0.2042,-0.2058,-0.2058,-0.2058,-0.2058,-0.2058,-0.2058,-0.152,-0.1589,-0.1633,-0.1753,-0.1802,-0.1878,-0.1967,-0.1951,-0.2,-0.1874,-0.2068,-0.2041,-0.204,-0.2042,-0.2057,-0.2058,-0.2058,-0.2058,-0.2058,-0.1429,-0.148,-0.1514,-0.1568,-0.1663,-0.1701,-0.1842,-0.1767,-0.1729,-0.1648,-0.1757,-0.1772,-0.1728,-0.1735,-0.1725,-0.1647,-0.1643,-0.164,0,-0.1341,-0.138,-0.137,-0.1387,-0.1404,-0.1553,-0.1446,-0.1468,-0.1505,-0.1464,-0.1712,-0.1838,-0.1846,-0.18,-0.1801,-0.1789,0,0,0,-0.1259,-0.1269,-0.1204,-0.1245,-0.1252,-0.1277,-0.1394,-0.1321,-0.1547,-0.1412,-0.1558,-0.158,-0.1852,-0.2055,-0.2023,-0.2022,-0.2024,0,0]},{"header":{"parameterUnit":"m.s-1","parameterCategory":2,"la1":30.2992,"la2":30.254,"lo1":-89.0895,"lo2":-89.0443,"dy":0.0025,"dx":0.0025,"nx":19,"ny":19,"refTime":"2026-05-21T09:00:00:Z","depth":"4","parameterNumber":3,"parameterNumberName":"V-component_of_CURRENTS"},"data":[0,0,0,-0.0355,-0.0355,-0.0303,-0.0302,-0.0181,-0.018,0,0,0,0,0,0,0,0,0,0,0,-0.0378,-0.0378,-0.0355,-0.0354,-0.0303,-0.0302,-0.0182,-0.018,0,0,0,0,0,0,0,0,0,0,0,-0.0378,-0.0378,-0.0378,-0.0354,-0.0303,-0.0302,-0.0182,-0.0232,0,0,0,0,0,0,0,0,0,0,-0.0288,-0.0323,-0.0378,-0.0378,-0.0354,-0.0303,-0.0302,-0.0235,-0.0229,-0.0193,0,-0.0197,0,-0.0187,-0.0172,-0.0172,0,0,0,-0.0344,-0.0329,-0.0313,-0.0378,-0.0354,-0.0303,-0.0323,-0.0232,-0.0225,-0.0184,-0.0195,-0.0191,-0.0185,-0.0171,-0.0171,-0.005,-0.0049,0,0,-0.0346,-0.0364,-0.0318,-0.0309,-0.0354,-0.0325,-0.0322,-0.0228,-0.0226,-0.0195,-0.0188,-0.0183,-0.017,-0.0169,-0.005,-0.005,0,0,0,-0.0362,-0.0366,-0.0354,-0.0314,-0.031,-0.0324,-0.032,-0.0231,-0.0227,-0.0187,-0.0181,-0.017,-0.0168,-0.005,-0.005,-0.0119,0,0,0,-0.0363,-0.0376,-0.0355,-0.0364,-0.0312,-0.0278,-0.0325,-0.0233,-0.0223,-0.0182,-0.017,-0.0167,-0.0051,-0.005,-0.0118,-0.0153,0,0,0,-0.0378,-0.0377,-0.0376,-0.0366,-0.0348,-0.0279,-0.027,-0.0231,-0.0219,-0.0171,-0.0167,-0.0051,-0.005,-0.0117,-0.015,-0.0123,0,0,0,-0.039,-0.0399,-0.0376,-0.0382,-0.0348,-0.0316,-0.027,-0.0242,-0.0208,-0.0169,-0.0051,-0.005,-0.0117,-0.0149,-0.0122,-0.0162,0,0,0,-0.0408,-0.0402,-0.0404,-0.0383,-0.0372,-0.0321,-0.0288,-0.023,-0.0174,-0.0077,-0.0074,-0.0119,-0.015,-0.0123,-0.0106,0,0,0,0,-0.0414,-0.0419,-0.0411,-0.04,-0.0366,-0.033,-0.0267,-0.0223,-0.0147,-0.015,-0.008,-0.0097,-0.0078,-0.0097,-0.0045,-0.0046,-0.0046,-0.0046,-0.0046,-0.046,-0.0441,-0.0446,-0.0419,-0.0394,-0.0325,-0.0285,-0.0204,-0.0157,-0.0128,-0.0125,-0.0114,-0.0135,-0.0088,-0.0089,-0.0089,-0.0089,-0.0089,-0.0089,-0.0499,-0.0506,-0.0477,-0.0481,-0.0433,-0.04,-0.0291,-0.0252,-0.0162,-0.0136,-0.0113,-0.0135,-0.0095,-0.0094,-0.0093,-0.0093,-0.0092,-0.0092,-0.0091,-0.0538,-0.0539,-0.0544,-0.0548,-0.0527,-0.0462,-0.041,-0.0329,-0.0224,-0.0207,-0.0178,-0.0137,-0.0161,-0.0184,-0.0184,-0.0184,-0.0184,-0.0184,-0.0184,-0.0582,-0.058,-0.0625,-0.062,-0.0634,-0.0602,-0.0488,-0.0413,-0.0303,-0.0248,-0.0216,-0.0145,-0.0142,-0.0163,-0.0185,-0.0185,-0.0185,-0.0185,-0.0185,-0.0629,-0.0646,-0.0713,-0.0746,-0.0768,-0.073,-0.0615,-0.044,-0.0362,-0.0277,-0.0244,-0.0241,-0.021,-0.0204,-0.0228,-0.0269,-0.027,-0.027,0,-0.0674,-0.0682,-0.0805,-0.088,-0.0898,-0.0817,-0.0687,-0.0558,-0.0409,-0.0432,-0.0385,-0.0359,-0.0353,-0.0329,-0.0324,-0.0359,0,0,0,-0.0715,-0.0752,-0.0859,-0.0945,-0.0977,-0.0801,-0.0657,-0.0602,-0.043,-0.0324,-0.0285,-0.0281,-0.0239,-0.0187,-0.013,-0.0126,-0.0158,0,0]}]]